OpenBCM V1.13 (Linux)

Packet Radio Mailbox

DB0FHN

[JN59NK Nuernberg]

 Login: GUEST





  
I0OJJ  > AMSAT    15.09.26 02:41l 325 Lines 15341 Bytes #999 (0) @ WW
BID : 6SY_IR0EQ
Read: OE5RCO DJ6UX GUEST
Subj: 2Line Orbital Elements
Path: DB0FHN<DB0FFL<OE2XZR<OK1TOR<SR6DWH<SR1BSZ<EA2RCF<IR0EQ
Sent: 260915/0025z @:IR0EQ.ITA.EU [Rome] $:6SY_IR0EQ

>From i0ojj@rgate.ampr.org Tue Sep 15 02:25:41 2026
Received: from rgate.ampr.org by rgate.ampr.org (JNOS2.0q.1) with SMTP
	id AA8818 ; Tue, 15 Sep 2026 02:25:41 +0200
Received: by rgate.ampr.org with SMTP
	id AA8815 ; Tue, 15 Sep 2026 02:25:34 +0200
Message-Id: <8816@rgate.ampr.org>
>From: i0ojj@rgate.ampr.org

SB KEPS @ AMSAT  $ORB26258.1
2Line Orbital Elements 26258.AMSAT

QST de W1STR

AMSAT Orbital Elements for Amateur Satellites in TLE Format
>From Orbital Analysis Office
New England Sci-Tech STEM Education Center
Natick MA September 15, 2026
To all radio amateurs


These element sets describe the orbits of various satellites 
in use by the amateur radio community. For details see:
www.amsat.org/keplerian-elements-formats/

A daily update of element sets is available at:
www.amsat.org/tle/daily-bulletin.txt
or without bulletin text:
www.amsat.org/tle/dailytle.txt


AO-07
1 07530U 74089B   26257.54007877 -.00000046  00000-0  36753-5 0  9993
2 07530 101.9919 271.7209 0012040 322.1588 206.0208 12.53699636371718
UO-11
1 14781U 84021B   26257.61916841  .00000985  00000-0  10536-3 0  9994
2 14781  97.8169 222.2563 0006105 243.8111 116.2480 14.90990555270454
LO-19
1 20442U 90005G   26257.48512804  .00000054  00000-0  36164-4 0  9993
2 20442  98.8823 281.7394 0010636 307.5219  52.4997 14.34143814915193
AO-27
1 22825U 93061C   26257.43183635  .00000066  00000-0  42092-4 0  9996
2 22825  98.6797 324.7758 0008151 190.9932 169.1074 14.30961131719768
FO-29
1 24278U 96046B   26257.54820134 -.00000014  00000-0  22835-4 0  9997
2 24278  98.5169  94.1692 0349149 224.4162 132.8488 13.53277998485257
GO-32
1 25397U 98043D   26257.41299807  .00000025  00000-0  30886-4 0  9998
2 25397  99.0152 252.4556 0001057  13.7115 346.4091 14.24442711464038
ISS
1 25544U 98067A   26257.33674862  .00004921  00000-0  97059-4 0  9991
2 25544  51.6309 218.8707 0004933 140.1115 220.0237 15.49109585585574
NO-44
1 26931U 01043C   26256.72239409  .00000058  00000-0  52735-4 0  9995
2 26931  67.0528  15.2724 0005736 272.4834  87.5611 14.31983338303123
SO-50
1 27607U 02058C   26257.29580827  .00000780  00000-0  10940-3 0  9992
2 27607  64.5515 213.2481 0072027 246.1134 113.2415 14.83210726277670
CO-55
1 27844U 03031E   26257.46130458  .00000192  00000-0  10189-3 0  9999
2 27844  98.6770 264.9125 0008427 289.0249  71.0017 14.24381067204387
RS-22
1 27939U 03042A   26257.64303377  .00000751  00000-0  12362-3 0  9994
2 27939  98.3474  84.5548 0011175 351.6964  73.0743 14.73599550228723
CO-65
1 32785U 08021C   26257.58672523  .00003914  00000-0  24374-3 0  9996
2 32785  97.8375 240.9600 0010412  85.5140 274.7277 15.10158345998687
CO-66
1 32791U 08021J   26257.49190771  .00015839  00000-0  46048-3 0  9994
2 32791  97.7563 259.8729 0003053  42.2885 317.8593 15.35546557   971
RS-30
1 32953U 08025A   26257.59011274  .00000082  00000-0  51836-3 0  9994
2 32953  82.5024 299.8381 0020694 115.6735 244.6485 12.43183200830800
SRMSAT
1 37841U 11058D   26257.07776403  .00000374  00000-0  59220-4 0  9990
2 37841  19.9710 241.4257 0011984 101.9182 322.2174 14.11592249770397
ZACUBE-1
1 39417U 13066B   26256.84340603  .00004466  00000-0  34173-3 0  9990
2 39417  97.8139 219.6344 0039854 316.6251  43.1839 15.01798687694037
Delfi-N3xt
1 39428U 13066N   26257.22923041  .00004179  00000-0  35872-3 0  9996
2 39428  97.8290 177.4962 0071376 270.5488  88.7554 14.96078789687936
GOMX-1
1 39430U 13066Q   26257.58553654  .00001380  00000-0  21164-3 0  9997
2 39430  97.6433  92.4140 0128579 149.5948 211.2798 14.69693358683040
LO-74
1 39440U 13066AA  26257.13862932  .00003454  00000-0  31672-3 0  9990
2 39440  97.8982 206.5592 0058666  92.2567 268.5372 14.94259901690277
AO-73
1 39444U 13066AE  26257.38182517  .00005083  00000-0  30804-3 0  9991
2 39444  97.8384 230.8097 0033426 259.5309 100.2152 15.10585012693125
DTUSAT-2
1 40030U 14033W   26255.98513021  .00004682  00000-0  24761-3 0  9990
2 40030  98.0914 259.3803 0006209 302.4998  57.5632 15.15999708665988
LILACSAT-2
1 40908U 15049K   26257.58457762  .00015577  00000-0  24002-3 0  9992
2 40908  97.4558 297.9643 0004587 287.9301  72.1452 15.54264617609620
Lapan A3
1 41603U 16040E   26257.59556161  .00002936  00000-0  92570-4 0  9992
2 41603  97.1566 250.8699 0011823  60.3065 299.9354 15.33594582568515
CAS-2T
1 41847U 16066G   26257.23211286  .00000860  00000-0  13003-3 0  9994
2 41847  98.3755 331.9432 0340498 219.1767 138.4327 14.44840123517652
TechnoSat
1 42829U 17042E   26257.19807953  .00002284  00000-0  16292-3 0  9992
2 42829  97.4394  51.5594 0018200 146.3560 213.8826 15.05392742500090
AO-91
1 43017U 17073E   26257.40839724  .00006482  00000-0  27555-3 0  9999
2 43017  97.4553 122.8013 0148012  20.8764 339.8426 15.13898921478887
S-Net D
1 43186U 18014G   26256.71615829  .00003337  00000-0  17035-3 0  9991
2 43186  97.5254 160.9482 0009835  74.6778 285.5542 15.17369169472181
S-Net B
1 43187U 18014H   26257.19103938  .00003450  00000-0  17612-3 0  9995
2 43187  97.5258 161.4092 0010362  69.4341 290.8003 15.17340993472257
S-Net A
1 43188U 18014J   26256.97833205  .00003858  00000-0  19633-3 0  9995
2 43188  97.5270 161.4238 0010324  70.5745 289.6603 15.17380312472221
S-Net C
1 43189U 18014K   26257.19545971  .00003538  00000-0  18053-3 0  9991
2 43189  97.5287 161.7281 0011571  63.0640 297.1774 15.17331282470804
Ten-Koh
1 43677U 18084G   26256.79556891  .00001092  00000-0  85491-4 0  9992
2 43677  98.0738  92.9082 0009469 170.8287 189.3111 15.03243105429479
PO-101
1 43678U 18084H   26257.58892425  .00001270  00000-0  10533-3 0  9999
2 43678  98.1170  97.7328 0011557 228.5182 131.5049 15.00725797429628
QO-100
1 43700U 18090A   26257.22385742  .00000136  00000-0  00000-0 0  9997
2 43700   0.0145 117.7179 0002579  87.2981 254.5921  1.00274976 28573
MinXSS-2
1 43758U 18099A   26257.44077921  .00036469  00000-0  57983-3 0  9993
2 43758  97.4451 336.7134 0005111 291.5472  68.5236 15.53218013427950
AO-95
1 43770U 18099N   26257.62311903  .00008878  00000-0  32330-3 0  9990
2 43770  97.4286 317.6039 0009013  41.0365 319.1551 15.28407823426872
SNUSat 2
1 43782U 18099AA  26257.39122103  .00005573  00000-0  23954-3 0  9990
2 43782  97.3966 309.4360 0009437 352.4394   7.6699 15.23025775426606
SnugLite
1 43784U 18099AC  26257.59583044  .00008774  00000-0  31553-3 0  9999
2 43784  97.3772 311.0608 0002220  10.3241 349.8044 15.28853238426974
ITASat 1
1 43786U 18099AE  26257.11805822  .00005342  00000-0  25051-3 0  9994
2 43786  97.3936 306.8722 0013328  47.6971 312.5391 15.20014418426413
EAGLET 1
1 43790U 18099AJ  26257.58684779  .00002759  00000-0  15747-3 0  9996
2 43790  97.4140 304.8795 0012008  43.3552 316.8622 15.13507679425855
ESEO
1 43792U 18099AL  26257.37731891  .00001649  00000-0  12187-3 0  9995
2 43792  97.3907 290.9273 0012663  34.8285 325.3768 15.04465863425212
JO-97
1 43803U 18099AX  26257.40456493  .00013172  00000-0  37443-3 0  9990
2 43803  97.4033 320.6747 0004078 322.4190  37.6768 15.36281570427317
Suomi 100
1 43804U 18099AY  26256.73105045  .00008405  00000-0  28940-3 0  9995
2 43804  97.4092 316.8697 0008513 334.6156  25.4665 15.30262833426954
ISAT
1 43879U 18111D   26256.78317077  .00446750  82188-4  11594-2 0  9993
2 43879  97.5792 200.3334 0007766 127.9061 232.2917 15.94996121425126
UWE-4
1 43880U 18111E   26256.79245483  .00037613  00000-0  63234-3 0  9999
2 43880  97.5820 189.6194 0007371  27.6586 332.5056 15.51636958424492
Prox-1
1 44339U 19036A   26257.23347634  .00010831  00000-0  10021-2 0  9995
2 44339  23.9940 238.5326 0005014 352.8597   7.1831 14.92470762386784
Taurus 1
1 44530U 19059C   26257.59903887  .00003892  00000-0  61595-3 0  9992
2 44530  98.6494  68.0804 0008911  37.1520 323.0301 14.72883218371806
TO-108
1 44881U 19093C   26257.63421118  .00001111  00000-0  13102-3 0  9999
2 44881  97.7460 327.6546 0014161 146.8904 213.3201 14.86635171364702
RS-44
1 44909U 19096E   26257.52050106  .00000013  00000-0  15325-4 0  9996
2 44909  82.5172 280.3462 0216440 295.6457  62.2427 12.79749361313776
SALSAT
1 46495U 20068K   26257.26571775  .00005740  00000-0  19484-3 0  9991
2 46495  97.8883 265.8489 0009221   1.1573 358.9687 15.30910957328982
CSS (TIANHE-1)
1 48274U 21035A   26257.58463244  .00018605  00000-0  22780-3 0  9996
2 48274  41.4676 139.2408 0002663 278.8217  81.2320 15.59928303307128
TeikyoSat 4
1 49396U 21102B   26257.07210072  .00001382  00000-0  89264-4 0  9995
2 49396  97.3629 283.0948 0011702 355.1823   4.9292 15.09771114266131
Z-Sat
1 49399U 21102E   26257.54963263  .00003408  00000-0  16637-3 0  9991
2 49399  97.3264 290.1664 0014867 298.6870  61.2870 15.18850715267001
KOSEN 1
1 49402U 21102H   26257.36975564  .00005255  00000-0  19518-3 0  9996
2 49402  97.3104 297.8260 0011664 248.4961 111.5035 15.27925970267638
HO-113
1 50466U 21131B   26257.60313410  .00000385  00000-0  13242-3 0  9990
2 50466  98.4979 349.5066 0004060 173.2704 186.8540 14.41424867247990
SNUGLITE 2
1 52899U 22065F   26257.12967346  .00000711  00000-0  14331-3 0  9992
2 52899  98.2334  41.8751 0008691 103.2455 256.9717 14.64484178224017
UmKA 1 (RS40S)
1 57172U 23091G   26257.61593191  .00004448  00000-0  19941-3 0  9991
2 57172  97.4954 315.9794 0013013 160.6053 199.5680 15.21672188177609
CubeBel-2 (EU11S)
1 57175U 23091K   26257.51318666  .00010084  00000-0  33796-3 0  9992
2 57175  97.4956 321.6116 0010154 151.2949 208.8853 15.31072605177963
RS-38S
1 57189U 23091Z   26257.45087763  .00014103  00000-0  37159-3 0  9994
2 57189  97.5006 328.8549 0008088 109.5644 250.6475 15.38602116178403
SONATE-2
1 59112U 24043Q   26257.24223457  .00044891  00000-0  44284-3 0  9993
2 59112  97.5625  53.6316 0005343 228.2755 131.8048 15.65799600141799
